This is the latest recevied weather packets stored in our database for station/object YO2KCB-10. If no packets are shown the sender has not sent any weather packets the latest 1 day(s).
| Time | Temp. | Humidity | Pressure | Rain* | Wind** | Luminosity | Snow |
|---|---|---|---|---|---|---|---|
| 1777801923 | 18.89° C | 29% | 1020.9 hPa | - | - | - | - |
| 1777800723 | 18.33° C | 30% | 1021 hPa | - | - | - | - |
| 1777799523 | 17.78° C | 31% | 1021.1 hPa | - | - | - | - |
| 1777798322 | 16.67° C | 31% | 1021.3 hPa | - | - | - | - |
| 1777797122 | 16.11° C | 32% | 1021.3 hPa | - | - | - | - |
| 1777795922 | 15° C | 33% | 1021.3 hPa | - | - | - | - |
| 1777794722 | 14.44° C | 33% | 1021.5 hPa | - | - | - | - |
| 1777793522 | 13.33° C | 34% | 1021.5 hPa | - | - | - | - |
| 1777792321 | 12.78° C | 34% | 1021.5 hPa | - | - | - | - |
| 1777791121 | 12.78° C | 35% | 1021.4 hPa | - | - | - | - |
| 1777789921 | 12.22° C | 34% | 1021.4 hPa | - | - | - | - |
| 1777788721 | 11.67° C | 34% | 1021.3 hPa | - | - | - | - |
| 1777787521 | 11.11° C | 35% | 1021.2 hPa | - | - | - | - |
| 1777786321 | 10.56° C | 34% | 1021.1 hPa | - | - | - | - |
| 1777785120 | 10° C | 34% | 1020.9 hPa | - | - | - | - |
| 1777783920 | 9.44° C | 34% | 1020.8 hPa | - | - | - | - |
| 1777782720 | 8.89° C | 33% | 1020.8 hPa | - | - | - | - |
| 1777781520 | 8.33° C | 34% | 1020.5 hPa | - | - | - | - |
| 1777780320 | 8.33° C | 35% | 1020.3 hPa | - | - | - | - |
| 1777779120 | 8.89° C | 34% | 1020.1 hPa | - | - | - | - |
| 1777777919 | 8.89° C | 33% | 1020 hPa | - | - | - | - |
| 1777776719 | 9.44° C | 33% | 1020 hPa | - | - | - | - |
| 1777775519 | 9.44° C | 33% | 1019.8 hPa | - | - | - | - |
| 1777774319 | 10° C | 33% | 1019.6 hPa | - | - | - | - |
| 1777773119 | 10° C | 33% | 1019.6 hPa | - | - | - | - |
* Rain since midnight (hover to see other rain measurements)
** Current wind speed in m/s (hover to see current wind gust speed)